Starlink 32118

operational
NORAD ID: 60280 Int'l Des: 2024-132 Owner: SPXS Country: US Constellation: starlink
LEOCIRCULAR

About Starlink 32118

Description loading...

Live Position

Loading 3D Globe...

Upcoming Passes

Altitude History

Altitude vs Time

uPlot chart will show altitude changes over time

Two-Line Element Set

1 60280U 24132C 25353.48993357 .00001249 00000-0 54295-4 0 9999
2 60280 53.1604 64.7960 0001139 78.3294 281.7835 15.30184026 79286
Epoch: Dec 19, 2025 • Age: 13 hours

Current Status

Altitude 475.1 km
Velocity 7.63 km/s
Sub-Earth Point 15.82°N, 20.09°W
Launch Date Jul 28, 2024
Age 1.3 years
Type internet

Technical Details

Classification Payload
Mass 730.00 kg
Dry Mass 700.00 kg
Total Mass 730.00 kg
Length 0.30 m
Diameter 4.10 m
Span 29.00 m
Shape Box + pan
Manufacturer SPXS
Bus Type Starlink V2M
Phase Status In Orbit
Owner/State SPXS/US

Large Constellations

Loading constellations...